Regional Weather Roundup
Issued by NWS Wakefield, VA

Home | Current Version | Previous Version | Text Only | Print | Product List | Glossary Off
Versions: 1 2 3 4 5 6 7 8 9 10 11 12 13 14 15 16 17 18 19 20 21 22 23 24 25 26 27 28 29 30 31 32 33 34 35 36 37 38 39 40 41 42 43 44 45 46 47 48 49 50

000
ASUS41 KAKQ 250615
RWRAKQ

REGIONAL WEATHER ROUNDUP
NATIONAL WEATHER SERVICE WAKEFIELD VA
100 AM EST SUN FEB 25 2018

Note: "fair" indicates few or no clouds below 12,000 feet with no
significant weather and/or obstructions to visibility. * = Denotes
station may not report precipitation (e.g., rain,snow,etc.),
thunder or fog.

VAZ042-051-052>054-056-250700-
NORTHERN VIRGINIA

CITY           SKY/WX    TMP DP  RH WIND       PRES   REMARKS
WASH NATIONAL  LGT RAIN  49  48  97 E7        30.10F
DULLES         LGT RAIN  47  47 100 CALM      30.10S FOG
FORT BELVOIR   CLOUDY    48  46  93 CALM      30.10S
QUANTICO       CLOUDY    50  49  96 E6        30.11S
FREDERICKSBRG* CLOUDY    50  50 100 E5        30.09S FOG
STAFFORD*      CLOUDY    49  49 100 E3        30.13F FOG
WARRENTON      CLOUDY    49  46  90 CALM      30.09F FOG
CULPEPER*      CLOUDY    49  47  93 CALM      30.10F FOG
MANASSAS*      LGT RAIN  48  47  96 NE3       30.11F FOG
LEESBURG*      LGT RAIN  45  45 100 CALM      30.10F
WINCHESTER     CLOUDY    43  43 100 CALM      30.09F FOG
FRONT ROYAL*   CLOUDY    45  45 100 N3        30.06F
LURAY*         CLOUDY    46  46 100 CALM      30.06F FOG
$$

VAZ048-049-060>072-079>083-250700-
CENTRAL AND SOUTH CENTRAL VIRGINIA

CITY           SKY/WX    TMP DP  RH WIND       PRES   REMARKS
RICHMOND       FOG       54  54 100 E5        30.07F VSB 1/2
CHESTERFIELD*  CLOUDY    55  54  96 NE3       30.07F FOG
PETERSBURG*    CLOUDY    57  54  89 NE5       30.07F
HANOVER        FOG       52  52 100 VRB3      30.09F VSB 1/2
TAPPAHANNOCK*  FOG       52  52 100 E8        30.10S VSB 3/4
QUINTON*       CLOUDY    53  53 100 MISG      30.08S FOG
CHARLOTTSVILLE CLOUDY    50  47  89 NE5       30.07F
GORDONSVILLE*  CLOUDY    48  48 100 NE3       30.07F FOG
ORANGE*        CLOUDY    46  46 100 CALM      30.08F FOG
LOUISA*        CLOUDY    49  48  99 NE6       30.11F FOG
BUMPASS*       CLOUDY    49  48  96 CALM      30.09S
FARMVILLE*     FOG      N/A N/A N/A N6        30.04F VSB 3/4
CREWE*         MOCLDY    57  57 100 CALM      30.05F
FORT PICKETT*  CLOUDY    60  60 100 NW7       30.05F
CHASE CITY*    FAIR      64  60  88 S3        30.03F
CLARKSVILLE*   FAIR      66  59  77 S9        30.02F
SOUTH HILL*    FAIR      64  61  90 S8        30.10F
LAWRENCEVILLE* CLOUDY    65  60  83 S6        30.05S
EMPORIA*       CLOUDY    64  59  82 SE5       30.07F
$$

VAZ088>098-250700-
SOUTHEAST VIRGINIA

CITY           SKY/WX    TMP DP  RH WIND       PRES   REMARKS
NORFOLK        MOCLDY    49  47  93 NE5       30.08S
VIRGINIA BEACH MOCLDY    49  45  86 CALM      30.08S
NORFOLK NAVAL  MOCLDY    49  47  93 E5        30.10S
WEST POINT*    CLOUDY    51  50  96 E3        30.10F
SALUDA*        CLOUDY    48  48 100 CALM      30.09F VSB 1/2
NEWPORT NEWS   CLOUDY    52  50  93 E6        30.08F
LANGLEY AFB    CLOUDY    50  50 100 E3        30.09S
FORT EUSTIS    MOCLDY    53  50  91 SE5       30.06S
WILLIAMSBURG*  FAIR      55  52  88 E3        30.09S
HR EXEC AP*    MOCLDY    55  52  89 E3        30.09S
FRANKLIN*      CLOUDY    65  60  85 S6        30.07S
US460-WAKEFLD  FAIR      59  57  93 NE3       30.07S
$$

VAZ020-022-025-037-045-250700-
WEST CENTRAL AND SOUTHWEST VIRGINIA

CITY           SKY/WX    TMP DP  RH WIND       PRES   REMARKS
STAUNTON*      CLOUDY    46  45  96 CALM      30.07F
WAYNESBORO*    CLOUDY    47  47  99 E8        30.05F
HOT SPRINGS VA DRZL/FOG  55  55 100 S13G18    30.05S VSB<1/4
LYNCHBURG      CLOUDY    51  50  96 NE10      30.04F
DANVILLE       FAIR      69  58  67 S10G17    30.02F
SOUTH BOSTON*  FAIR      67  56  68 CALM      30.02F
MARTINSVILLE   MOCLDY    65  56  72 CALM      30.05S
ROANOKE        MOCLDY    63  57  81 SE13      30.02F
BLACKSBURG     FAIR      65  56  72 SW7G16    30.05F
DUBLIN*        FAIR      66  56  71 S12       30.03S
MARION*        MOCLDY    66  52  59 CALM      30.03F
HILLSVILLE*    CLOUDY    62  56  81 S10       30.04F
RICHLANDS*     CLOUDY    65  52  63 S7G18     29.98F
WISE*          CLOUDY    63  54  72 S12G17    29.97F
ABINGDON*      MOCLDY    67  55  65 SW6       29.97F
$$

MDZ021>025-VAZ099-100-250700-
SOUTHERN MARYLAND AND THE DELMARVA PENINSULA

CITY           SKY/WX    TMP DP  RH WIND       PRES   REMARKS
PATUXENT RIVER CLOUDY    47  46  97 E5        30.10F
BAY BRIDGE APT LGT RAIN  48  46  93 E5        30.11F FOG
LEONARDTOWN    CLOUDY    46  45  93 E3        30.11F
DOVER          LGT RAIN  46  45  95 E12       30.13F
GEORGETOWN     CLOUDY    47  44  90 E9        30.11F
EASTON         CLOUDY    48  46  90 E7        30.13F FOG
CAMBRIDGE        N/A     48  46  93 E5        30.11S
SALISBURY      FOG       47  47 100 E6        30.10F VSB 3/4
OCEAN CITY     FOG       46  46 100 NE6       30.11F VSB 3/4
WALLOPS ISLAND FOG       49  49 100 NE10      30.09F VSB 1/2
ACCOMACK*      CLOUDY    49  49  99 E6        30.08F FOG
$$

NCZ012>017-030>032-250700-
NORTH CENTRAL AND EASTERN NORTH CAROLINA

CITY           SKY/WX    TMP DP  RH WIND       PRES   REMARKS
ROANOKE RAPIDS CLOUDY    64  63  94 S3        30.07S
RALEIGH        FAIR      66  60  81 SW14      30.08S
ELIZABETH CITY FAIR      64  63  96 S10       30.10R
AHOSKIE*       FAIR      64  61  89 S6        30.08S
EDENTON*       FAIR      65  62  90 SW8       30.11R
CURRITUCK*     FAIR      62  58  88 SW7       30.10R
KILL DEVIL HLS FAIR     N/A N/A N/A SW6       30.10S
MANTEO         FAIR      61  60  96 SW9       30.12S
CAPE HATTERAS  FAIR      65  64  97 SW10      30.14S
TARBORO*       NOT AVBL
GOLDSBORO      FAIR      66  61  85 SW9       30.09S
WASHINGTON     FAIR      65  63  90 SW7       30.12R
GREENVILLE     FAIR      66  61  82 SW9       30.12S
NEW BERN       FAIR      64  63  96 SW9       30.14S
WILMINGTON     FAIR      65  64  97 S7        30.14S
$$

VAZ048-250700-
ELSEWHERE

CITY           SKY/WX    TMP DP  RH WIND       PRES   REMARKS
HARRISBURG PA  CLOUDY    46  42  86 SE5       30.11F
BALTIMORE      LGT RAIN  46  46 100 E9        30.10F FOG
ANNAPOLIS      LGT RAIN  49  48  97 E5        30.10F
ANDREWS AFB    CLOUDY    47  47  99 E7        30.08F
PHILADELPHIA   CLOUDY    46  43  89 E7        30.16S
HENDERSON NC   FAIR      63  56  79 S10       30.05F
GREENSBORO     MOCLDY    66  58  75 S12       30.04F
ROCKY MOUNT    FAIR      65  60  84 S9        30.09S
$$

VAZ100-250700-
MARINE

STATION/POSITION TIME  TEMP    WIND        PRES    WAVE   SWELL
                       AIR SEA DIR/SP/G            HT/PER HT/PER
                 (UTC) (F)     (DEG/KT/KT) (MB)    (FT/S) (FT/S)
BRANDYWINE LGT   0542           90/ 14/ 15 1020.4F
CAPE MAY NJ      0548      43   80/  7/ 14 1019.7F
LEWES DE         0536      45   90/  9/ 11 1020.1F
15NM E FENWICK I 0550   46 44   70/  8/  8 1019.7F   2/ 8   2/ 8
OCEAN-CITY-INLET 0548      43   50/  3/  6 1020.0F
WACHAPREAGUE VA  0542      53   50/  8/  9 1018.8F
THOMAS POINT MD  0600   47 42   70/  4/  5   N/A
GOOSES REEF MD   0600   44 42   60/  4/  4 1019.8
COVE POINT MD    0542           60/  5/  7 1020.0F
SOLOMONS ISLAND  0542      44   70/  5/  6 1019.0F
BISHOPS HEAD MD  0542      50   90/  7/  9 1019.8R
PINEY POINT MD   0542          120/  8/  8   N/A
POTOMAC MD       0600   45 44  160/  4/  8 1020.4    0
CAMBRIDGE MD     0542      48              1020.3F
LEWISETTA VA     0542      49  110/  8/  9 1019.3F
RAPPAHANNOCK LGT 0542           90/  3/  6 1019.4R
YORK RVR RNG VA  0542           90/  3/  3 1019.4F
YORKTOWN VA      0542      49   80/  6/  7 1018.6F
DOMINION TERM VA 0542           60/  1/  3 1019.0S
KIPTOPEKE VA     0542      47   70/ 10/ 13   N/A
CAPE HENRY VA    0542           70/  2/  3   N/A
WILLOUBY STN VA  0542           70/  6/  7 1018.9S
S CRANEY ISL VA  0542           50/  3/  4 1018.6S
CAPE HENRY BUOY  0600      46                N/A     2/ 8
CAPE CHARLES BUO 0551      45                N/A     3/ 8
64NM E OF VA BCH 0550   54 50  200/ 10/ 12 1019.5F   3/ 9   3/ 9
DUCK PIER NC     0542      46  200/ 12/ 15 1018.9R
44100 DUCK FRF   0545      49                N/A     2/ 9   2/11
44056 DUCK FRF   0600      48                N/A     2/ 9   2/11
OREGON INLET NC  0542      61  200/ 11/ 12 1019.9S
HATTERAS NC      0542      62  210/  9/ 12 1020.3F
DIAMOND SHLS NC  0550   72 73  240/ 14/ 17 1021.0S   4/10   3/10
CAPE LOOKOUT NC  0600          220/  9/ 12 1021.2F
$$



USA.gov is the U.S. government's official web portal to all federal, state and local government web resources and services.